"Time","Temp","Dewpoint","Humidity","Pressure","Direction","Speed","Gust","Precip","PrecipRate"
"00:04:57","60.4","58.7","94","30.11","343","0","0","0.00","0.00"
"00:09:58","60.4","58.7","94","30.11","343","0","0","0.00","0.00"
"00:14:57","60.4","58.8","94.3","30.11","343","0","0","0.00","0.00"
"00:19:59","60.5","58.8","94.2","30.11","343","0","0","0.00","0.00"
"00:24:56","60.5","58.8","94","30.11","343","0","0","0.00","0.00"
"00:29:58","60.5","58.8","94","30.11","343","0","0","0.00","0.00"
"00:34:57","60.6","58.9","94","30.11","343","0","0","0.00","0.00"
"00:39:56","60.6","58.9","94","30.11","343","0","0","0.00","0.00"
"00:44:58","60.5","58.8","94","30.11","343","0","0","0.00","0.00"
"00:49:57","60.5","58.8","94","30.11","343","0","0","0.00","0.00"
"00:54:56","60.4","58.7","94","30.11","343","0","0","0.00","0.00"
"00:59:56","60.3","58.6","94","30.11","343","0","0","0.00","0.00"
"01:04:59","60.2","58.5","94","30.11","343","0","0","0.00","0.00"
"01:09:58","60.2","58.5","94","30.11","343","0","0","0.00","0.00"
"01:14:56","60.2","58.5","94","30.11","343","0","0","0.00","0.00"
"01:19:56","60.1","58.4","94","30.11","343","0","0","0.00","0.00"
"01:24:58","60","58.3","94","30.11","343","0","0","0.00","0.00"
"01:29:56","59.9","58.2","94","30.11","343","0","0","0.00","0.00"
"01:34:56","59.8","58.1","94","30.11","343","0","0","0.00","0.00"
"01:39:59","59.6","57.9","94","30.11","343","0","0","0.00","0.00"
"01:44:56","59.5","57.8","94","30.11","343","0","0","0.00","0.00"
"01:49:59","59.3","57.6","94","30.10","343","0","0","0.00","0.00"
"01:54:56","59.1","57.4","94","30.10","343","0","0","0.00","0.00"
"01:59:56","59","57.3","94","30.10","343","0","0","0.00","0.00"
"02:04:59","58.9","57.4","94.8","30.10","343","0","0","0.00","0.00"
"02:09:57","58.9","57.4","94.9","30.10","343","0","0","0.00","0.00"
"02:14:56","58.7","57.1","94.2","30.10","343","0","0","0.00","0.00"
"02:19:57","58.6","57","94.3","30.09","343","0","0","0.00","0.00"
"02:24:56","58.5","57","94.9","30.09","343","0","0","0.00","0.00"
"02:29:56","58.4","57","95","30.09","343","0","0","0.00","0.00"
"02:34:56","58.3","56.9","95","30.09","343","0","0","0.00","0.00"
"02:39:56","58.3","56.9","95","30.09","343","0","0","0.00","0.00"
"02:44:56","58.2","56.8","95","30.09","343","0","0","0.00","0.00"
"02:49:56","58.2","56.8","95","30.09","343","0","0","0.00","0.00"
"02:54:55","58.1","56.7","95","30.09","343","0","0","0.00","0.00"
"02:59:59","58","56.6","95","30.09","343","0","0","0.00","0.00"
"03:04:56","57.9","56.7","95.5","30.09","343","0","0","0.00","0.00"
"03:09:59","57.9","56.8","96","30.09","343","0","0","0.00","0.00"
"03:14:58","58","56.9","96","30.09","343","0","0","0.00","0.00"
"03:19:58","57.9","56.8","96","30.09","343","0","0","0.00","0.00"
"03:24:58","57.9","56.8","96","30.09","343","0","0","0.00","0.00"
"03:29:56","57.8","56.7","96","30.09","343","0","0","0.00","0.00"
"03:34:56","57.8","56.7","96","30.09","343","0","0","0.00","0.00"
"03:39:58","57.7","56.6","96","30.09","343","0","0","0.00","0.00"
"03:44:33","57.7","56.6","96","30.09","343","0","0","0.00","0.00"
"03:49:58","57.7","56.6","96","30.09","343","0","0","0.00","0.00"
"03:54:57","57.6","56.5","96","30.09","343","0","0","0.00","0.00"
"03:59:56","57.4","56.3","96","30.09","343","0","0","0.00","0.00"
"04:04:58","57.4","56.3","96","30.09","343","0","0","0.00","0.00"
"04:09:57","57.3","56.2","96","30.09","343","0","0","0.00","0.00"
"04:14:59","57.3","56.2","96","30.09","343","0","0","0.00","0.00"
"04:19:57","57.3","56.2","96","30.08","343","0","0","0.00","0.00"
"04:24:59","57.2","56.1","96","30.08","343","0","0","0.00","0.00"
"04:29:56","57.2","56.1","96","30.08","343","0","0","0.00","0.00"
"04:34:59","57.1","56","96","30.08","343","0","0","0.00","0.00"
"04:39:57","57.1","56","96","30.08","343","0","0","0.00","0.00"
"04:44:59","57.2","56.1","96","30.09","343","0","0","0.00","0.00"
"04:49:58","57.2","56.1","96","30.09","343","0","0","0.00","0.00"
"04:54:58","57.2","56.3","96.8","30.09","343","0","0","0.00","0.00"
"04:59:56","57.3","56.5","97","30.09","343","0","0","0.00","0.00"
"05:04:57","57.3","56.5","97","30.09","343","0","0","0.00","0.00"
"05:09:56","57.3","56.5","97","30.09","343","0","0","0.00","0.00"
"05:14:58","57.3","56.2","96.1","30.09","343","0","0","0.00","0.00"
"05:19:56","57.3","56.4","96.5","30.09","343","0","0","0.00","0.00"
"05:24:57","57.3","56.2","96","30.09","343","0","0","0.00","0.00"
"05:29:56","57.2","56.1","96","30.09","343","0","0","0.00","0.00"
"05:34:57","57.2","56.3","96.8","30.09","343","0","0","0.00","0.00"
"05:39:59","57.2","56.1","96","30.09","343","0","0","0.00","0.00"
"05:44:57","57.1","56","96","30.10","343","0","0","0.00","0.00"
"05:49:57","57.1","56","96","30.10","343","0","0","0.00","0.00"
"05:54:59","57","55.9","96","30.10","343","0","0","0.00","0.00"
"05:59:57","57","56.1","96.7","30.10","343","0","0","0.00","0.00"
"06:04:54","56.9","56.1","97","30.10","343","0","0","0.00","0.00"
"06:09:58","56.9","56.1","96.9","30.10","343","0","0","0.00","0.00"
"06:14:57","56.8","55.7","96","30.10","343","0","0","0.00","0.00"
"06:19:56","56.7","55.7","96.2","30.10","343","0","0","0.00","0.00"
"06:24:57","56.7","55.9","96.9","30.10","343","0","0","0.00","0.00"
"06:29:56","56.7","55.9","97","30.10","343","0","0","0.00","0.00"
"06:34:59","56.8","56","97","30.10","343","0","0","0.00","0.00"
"06:39:58","56.8","56","97","30.10","343","0","0","0.00","0.00"
"06:44:57","56.9","56.1","97","30.10","343","0","0","0.00","0.00"
"06:49:59","57.1","56.3","97","30.10","343","0","0","0.00","0.00"
"06:54:58","57.2","56.4","97","30.10","343","0","0","0.00","0.00"
"06:59:56","57.2","56.4","97","30.10","343","0","0","0.00","0.00"
"07:04:58","57.3","56.5","97","30.10","343","0","0","0.00","0.00"
"07:09:57","57.3","56.5","97","30.10","343","0","0","0.00","0.00"
"07:14:58","57.3","56.5","97","30.10","343","0","0","0.00","0.00"
"07:19:59","57.4","56.6","97","30.10","343","0","0","0.00","0.00"
"07:24:57","57.6","56.8","97.1","30.10","343","0","0","0.00","0.00"
"07:29:59","57.7","57.1","97.8","30.10","343","0","0","0.00","0.00"
"07:34:56","57.8","57","97","30.10","343","0","0","0.00","0.00"
"07:39:57","58","57.2","97","30.10","343","0","0","0.00","0.00"
"07:44:58","58.2","57.4","97","30.10","343","0","0","0.00","0.00"
"07:49:59","58.4","57.8","98","30.10","343","0","0","0.00","0.00"
"07:54:57","58.6","58","98","30.10","343","0","0","0.00","0.00"
"07:59:56","58.8","58.2","98","30.11","343","0","0","0.00","0.00"
"08:04:58","59.1","58.5","98","30.11","343","0","0","0.00","0.00"
"08:09:57","59.3","58.7","98","30.11","343","0","0","0.00","0.00"
"08:14:58","59.6","59","98","30.11","343","0","0","0.00","0.00"
"08:18:29","59.6","58.9","97.3","30.11","343","0","0","0.00","0.00"
"09:04:56","62","60.6","94.8","30.10","343","0","0","0.00","0.00"
"09:09:58","62.2","60.6","94.3","30.10","343","0","0","0.00","0.00"
"09:14:57","62.5","60.7","93.8","30.10","343","0","0","0.00","0.00"
"09:19:59","62.8","60.7","93.1","30.10","343","0","0","0.00","0.00"
"09:24:58","63","61","93.1","30.10","343","0","0","0.00","0.00"
"09:29:57","63.4","61.5","93.6","30.10","343","0","0","0.00","0.00"
"09:34:59","63.8","61.5","92.6","30.10","343","0","0","0.00","0.00"
"09:39:56","64.1","61.6","91.6","30.10","343","0","0","0.00","0.00"
"09:44:57","64.3","61.7","91.2","30.10","343","0","0","0.00","0.00"
"09:49:58","64.6","61.6","90.1","30.10","343","0","0","0.00","0.00"
"09:54:59","65","62.1","90.3","30.10","343","0","0","0.00","0.00"
"09:59:57","65.4","62.2","89.3","30.10","343","0","0","0.00","0.00"
"10:04:58","65.6","62","87.9","30.10","343","0","0","0.00","0.00"
"10:09:56","66.1","62.7","88.8","30.10","343","0","0","0.00","0.00"
"10:14:57","66.6","62.8","87.4","30.10","343","0","0","0.00","0.00"
"10:19:57","67","62.8","86.4","30.10","343","0","0","0.00","0.00"
"10:24:58","67.4","62.8","85.5","30.10","343","0","0","0.00","0.00"
"10:29:59","67.7","62.9","84.7","30.11","268","0","0","0.00","0.00"
"10:34:59","68","62.2","81.8","30.11","238","0","0","0.00","0.00"
"10:39:57","68.3","61.7","79.5","30.11","238","0","0","0.00","0.00"
"10:44:56","68.6","61.7","78.5","30.11","212","0","1","0.00","0.00"
"10:49:57","68.9","61.5","77","30.11","212","0","1.2","0.00","0.00"
"10:54:58","69.3","61.9","77.3","30.11","190","1.6","4","0.00","0.00"
"10:59:59","69.7","61.6","75.7","30.11","190","1.6","4","0.00","0.00"
"11:04:56","70","61.9","75.5","30.10","172","0.9","4","0.00","0.00"
"11:09:59","70.4","62.2","75.6","30.10","128","0.6","3.5","0.00","0.00"
"11:14:59","71","62.6","74.6","30.10","160","1.7","5","0.00","0.00"
"11:19:59","71.9","63.1","73.8","30.09","177","1.4","4","0.00","0.00"
"11:24:59","72.6","62.6","70.8","30.09","160","2.6","6","0.00","0.00"
"11:29:57","73","62.6","69.9","30.09","156","2.4","5","0.00","0.00"
"11:34:57","73.1","63","70.8","30.09","190","3.2","6","0.00","0.00"
"11:39:58","72.9","62.6","70.1","30.09","184","3.2","7","0.00","0.00"
"11:44:58","72.9","62.8","70.7","30.09","194","3.3","6","0.00","0.00"
"11:49:59","73","62.9","70.9","30.08","161","2","5","0.00","0.00"
"11:54:59","73.4","63","70","30.08","147","2.5","5","0.00","0.00"
"11:59:59","73.7","63.7","71","30.08","160","1.5","5","0.00","0.00"
"12:04:59","74","63.7","70.1","30.08","187","2.2","6","0.00","0.00"
"12:09:57","74","63.8","70.5","30.08","209","2.3","4","0.00","0.00"
"12:14:58","73.8","63.4","70.2","30.08","217","1.5","4","0.00","0.00"
"12:19:58","73.7","63.6","70.6","30.08","177","2.4","5","0.00","0.00"
"12:24:59","73.8","63.5","70.3","30.08","189","3.4","6","0.00","0.00"
"12:29:59","73.8","63.5","70.3","30.08","158","2.6","5","0.00","0.00"
"12:34:56","73.8","63.5","70.1","30.07","183","2.6","6","0.00","0.00"
"12:39:57","74.2","64","70.7","30.07","168","2.3","5.8","0.00","0.00"
"12:44:57","74.6","63.5","68.5","30.07","182","2.2","6","0.00","0.00"
"12:49:57","74.7","63.9","69","30.07","145","2.5","6","0.00","0.00"
"12:54:59","75","63.8","68.3","30.07","134","2.3","6","0.00","0.00"
"12:59:59","74.9","63.5","67.7","30.07","136","0.7","4","0.00","0.00"
"13:04:56","74.9","64.1","69.2","30.05","152","0.1","3.5","0.00","0.00"
"13:09:59","75.1","63","66.2","30.05","166","0.2","5","0.00","0.00"
"13:14:56","75.1","62.7","65.5","30.05","188","2.4","6","0.00","0.00"
"13:19:56","75.1","62.6","65","30.05","150","1.7","4","0.00","0.00"
"13:24:57","75.6","62.9","64.8","30.05","143","2.6","6","0.00","0.00"
"13:29:58","76","62.5","63","30.05","139","1.3","5","0.00","0.00"
"13:34:57","76.5","63.1","63.4","30.04","121","2.3","7","0.00","0.00"
"13:39:55","76.8","62.3","61","30.04","159","2.3","5.8","0.00","0.00"
"13:44:59","76.9","62.4","61.1","30.04","145","2.7","5","0.00","0.00"
"13:49:56","76.8","62.5","61.5","30.04","153","2","6","0.00","0.00"
"13:54:57","77","62.6","61.2","30.04","117","1.5","5.8","0.00","0.00"
"13:59:59","77.2","62.6","60.9","30.04","148","0.7","3.5","0.00","0.00"
"14:04:56","77.4","62.7","60.6","30.03","186","2.3","5","0.00","0.00"
"14:09:59","77.7","62.9","60.5","30.03","176","2.2","6","0.00","0.00"
"14:14:58","78","63.3","60.7","30.03","162","3.2","7","0.00","0.00"
"14:19:59","78.3","63.4","60.3","30.03","155","2.9","9.2","0.00","0.00"
"14:24:57","78.6","61.5","55.8","30.03","141","2.5","5.8","0.00","0.00"
"14:29:58","78.6","63.1","59","30.03","172","2.6","7","0.00","0.00"
"14:34:58","78.8","63.2","58.8","30.02","207","4.3","6.9","0.00","0.00"
"14:39:58","78.9","62.5","57.1","30.02","204","2.7","7","0.00","0.00"
"14:44:58","79.2","63.9","59.5","30.02","212","3","7","0.00","0.00"
"14:49:59","79.5","63.6","58.3","30.02","172","3","6","0.00","0.00"
"14:54:55","79.8","63.8","58.2","30.02","189","3.7","9.2","0.00","0.00"
"14:59:59","80","63.4","57.1","30.02","187","2.6","6.9","0.00","0.00"
"15:04:58","80.2","63.8","57.5","30.00","158","2.6","6","0.00","0.00"
"15:09:56","80","63.3","56.8","30.00","189","3.7","9.2","0.00","0.00"
"15:14:56","79.8","63.8","58.2","30.00","196","2.9","6","0.00","0.00"
"15:19:57","79.9","64.9","60.4","30.00","187","2.6","6","0.00","0.00"
"15:24:56","79.7","64.4","59.6","30.00","188","2.6","6","0.00","0.00"
"15:29:58","79.4","64.3","60","30.00","182","3.6","10","0.00","0.00"
"15:34:59","79.6","64.6","60.1","29.99","197","3.1","7","0.00","0.00"
"15:39:59","80","64.8","59.8","29.99","146","2.2","8.1","0.00","0.00"
"15:44:59","79.8","64","58.5","29.99","116","2.5","6","0.00","0.00"
"15:49:59","79.7","65","60.8","29.99","174","1.9","6","0.00","0.00"
"15:54:56","80.3","65.1","60","29.99","175","2.9","6","0.00","0.00"
"15:59:56","80.7","64.7","58.4","29.99","177","2.4","5","0.00","0.00"
"16:04:56","80.9","63.9","56.5","29.98","183","2.9","7","0.00","0.00"
"16:09:58","80.8","63.6","55.8","29.98","167","2.9","7","0.00","0.00"
"16:14:57","80.7","63.4","55.8","29.98","207","3.2","7","0.00","0.00"
"16:19:59","80.7","64","56.8","29.97","211","2.5","6","0.00","0.00"
"16:24:58","80.8","64.1","56.9","29.97","184","3.7","8","0.00","0.00"
"16:29:57","80.8","63.7","56.2","29.97","197","3.5","8.1","0.00","0.00"
"16:34:56","80.9","63.8","56.3","29.97","205","3.3","10.4","0.00","0.00"
"16:39:57","80.8","63.8","56.3","29.97","171","2.7","5","0.00","0.00"
"16:44:58","81","64.4","57.2","29.98","185","2.6","7","0.00","0.00"
"16:49:58","81.1","64.3","56.7","29.98","200","2.9","6","0.00","0.00"
"16:54:59","81.2","65.1","58.2","29.98","201","3","7","0.00","0.00"
"16:59:57","81.1","64.7","57.5","29.98","170","3.3","6","0.00","0.00"
"17:04:58","81","64.9","58","29.97","169","2.1","4.6","0.00","0.00"
"17:09:59","81.1","65","58.4","29.97","199","3.3","6","0.00","0.00"
"17:14:57","80.9","64.9","58.3","29.97","160","3.4","9","0.00","0.00"
"17:19:56","80.7","64.2","57.3","29.97","183","4.5","10.4","0.00","0.00"
"17:24:57","80.6","63.9","56.9","29.97","173","3.5","7","0.00","0.00"
"17:29:57","80.5","64.2","57.5","29.97","194","3.2","6","0.00","0.00"
"17:34:58","80.6","64","57.1","29.97","202","2.9","6","0.00","0.00"
"17:39:59","80.5","64","57.1","29.97","239","2.5","5","0.00","0.00"
"17:44:56","80.7","64.3","57.6","29.97","179","2.6","7","0.00","0.00"
"17:49:56","80.7","63.2","55.5","29.96","160","3.7","7","0.00","0.00"
"17:54:56","80.5","63.5","56.2","29.96","166","2.4","6","0.00","0.00"
"17:59:59","80.2","63.2","56.2","29.96","154","3.2","10.4","0.00","0.00"
"18:04:56","80","63.2","56.6","29.96","186","1.8","5.8","0.00","0.00"
"18:09:59","80.1","63.5","57","29.96","184","1.7","4","0.00","0.00"
"18:14:57","79.8","63.8","58.1","29.96","162","1.2","4","0.00","0.00"
"18:19:57","79.4","63.3","57.9","29.96","205","1.8","3.5","0.00","0.00"
"18:24:57","78.9","63","58.3","29.96","183","2.1","4","0.00","0.00"
"18:29:59","78.4","63.1","59.4","29.96","189","1.4","6","0.00","0.00"
"18:34:57","78","63.3","60.5","29.96","181","2.3","4","0.00","0.00"
"18:39:59","77.7","63.2","61","29.96","179","1.7","5","0.00","0.00"
"18:44:57","77.5","63.3","61.7","29.96","178","0.8","4","0.00","0.00"
"18:49:56","77.3","63.3","62","29.95","176","2.1","5","0.00","0.00"
"18:54:59","77","63.4","63","29.95","182","1.9","4","0.00","0.00"
"18:59:58","76.8","63.4","63.4","29.96","181","1.9","4","0.00","0.00"
"19:04:59","76.5","63.1","63.3","29.96","177","1.8","3.5","0.00","0.00"
"19:09:57","76.2","62.9","63.5","29.96","172","1.8","4","0.00","0.00"
"19:14:56","76","63","64.2","29.96","167","1.7","3.5","0.00","0.00"
"19:19:56","75.8","63.1","64.7","29.96","167","1.4","3.5","0.00","0.00"
"19:24:56","75.5","63.2","65.5","29.96","167","1.1","3.5","0.00","0.00"
"19:29:58","75.2","63.1","66","29.96","167","0.5","2.3","0.00","0.00"
"19:34:57","74.8","63","66.7","29.96","167","0.3","1.2","0.00","0.00"
"19:39:59","74.5","63","67.5","29.96","167","0","0","0.00","0.00"
"19:44:59","74.1","63.1","68.5","29.96","167","0","0","0.00","0.00"
"19:49:59","73.7","63.8","71.4","29.96","167","0","0","0.00","0.00"
"19:54:58","73","63.8","72.8","29.96","167","0","0","0.00","0.00"
"19:59:57","72.4","63.6","73.8","29.97","167","0","0","0.00","0.00"
"20:04:59","71.8","63.4","75","29.97","167","0","0","0.00","0.00"
"20:09:58","71.2","63.4","76.3","29.97","167","0","0","0.00","0.00"
"20:14:57","70.7","63.5","78","29.97","167","0","0","0.00","0.00"
"20:19:59","70.2","63.6","79.4","29.97","167","0","0","0.00","0.00"
"20:24:58","69.8","63.4","80.1","29.97","167","0","0","0.00","0.00"
"20:29:56","69.5","63.4","81","29.97","167","0","0","0.00","0.00"
"20:34:59","69.1","63","81.2","29.97","167","0","0","0.00","0.00"
"20:39:56","68.7","63","82.1","29.97","167","0","0","0.00","0.00"
"20:44:59","68.4","63","83","29.97","167","0","0","0.00","0.00"
"20:49:57","68.1","62.9","83.5","29.97","167","0","0","0.00","0.00"
"20:54:56","67.9","63","84.5","29.97","167","0","0","0.00","0.00"
"20:59:56","67.7","63","85","29.97","167","0","0","0.00","0.00"
"21:04:56","67.5","62.8","85.2","29.97","167","0","1","0.00","0.00"
"21:09:59","67.4","62.7","85","29.97","167","0.6","3.5","0.00","0.00"
"21:14:56","67.6","62.9","85","29.97","148","0.7","3.5","0.00","0.00"
"21:19:56","68","63.1","84.3","29.97","141","0.5","3.5","0.00","0.00"
"21:24:58","68.4","63.4","84","29.97","146","0.4","4","0.00","0.00"
"21:29:56","68.7","63.5","83.3","29.97","169","0.9","3.5","0.00","0.00"
"21:34:59","69.1","63.7","83","29.97","164","1","3.5","0.00","0.00"
"21:39:58","69.3","63.8","82.7","29.97","160","1.2","4","0.00","0.00"
"21:44:57","69.5","63.8","82.1","29.97","123","1.1","3.5","0.00","0.00"
"21:49:56","69.6","63.9","82","29.97","135","1.3","4","0.00","0.00"
"21:54:56","69.6","63.9","82","29.97","143","1.1","4","0.00","0.00"
"21:59:58","69.6","63.9","82","29.97","147","1","3.5","0.00","0.00"
"22:04:59","69.6","63.9","82","29.96","133","1.1","4","0.00","0.00"
"22:09:58","69.6","63.9","82","29.96","139","1.2","4","0.00","0.00"
"22:14:59","69.5","63.9","82.4","29.96","137","1.1","3.5","0.00","0.00"
"22:19:58","69.5","64.1","83","29.96","137","0.3","2.3","0.00","0.00"
"22:24:57","69.3","64","83.3","29.96","137","0","1.2","0.00","0.00"
"22:29:55","69","64","84","29.96","137","0","0","0.00","0.00"
"22:34:58","68.6","63.6","84","29.96","137","0","0","0.00","0.00"
"22:39:56","68.1","63.3","84.4","29.96","137","0","0","0.00","0.00"
"22:44:58","67.7","63.4","86","29.96","137","0","0","0.00","0.00"
"22:49:58","67.5","63.5","87.1","29.95","137","0","1","0.00","0.00"
"22:54:56","67.3","63.6","88","29.95","137","0","1.2","0.00","0.00"
"22:59:56","67.1","63.4","88","29.95","137","0","0","0.00","0.00"
"23:04:57","66.8","63.1","88","29.95","137","0","0","0.00","0.00"
"23:09:56","66.6","62.9","88","29.95","137","0","0","0.00","0.00"
"23:14:58","66.4","63.1","88.9","29.95","137","0.1","1.2","0.00","0.00"
"23:19:56","66.3","63","89.1","29.95","137","0.3","1.2","0.00","0.00"
"23:24:59","66.3","63.3","90","29.95","137","0","0","0.00","0.00"
"23:29:58","66.5","63.5","90","29.95","138","0","0","0.00","0.00"
"23:34:56","66.7","63.7","90","29.94","137","1","3.5","0.00","0.00"
"23:39:59","66.9","63.9","90","29.94","135","1","3.5","0.00","0.00"
"23:44:57","67","63.6","89","29.95","137","0.9","3.5","0.00","0.00"
"23:49:56","67.1","63.7","89","29.95","138","0.3","2.3","0.00","0.00"
"23:54:58","67","63.6","89","29.95","138","0","0","0.00","0.00"
"23:59:58","67","63.6","89","29.95","138","0","0","0.00","0.00"
